GW7823 Weather Reports


time (UTC)temp
C
wind
direction
speed
KPH
gust
KPH
rain 1hr
cm
rain 24hr
cm
rain mn
cm
humidity
%
barometer
mb
20260903081230 15 36 1.6 3.2 0.05 0.05 0.05 94 1021.5
20260903080725 15 5 0.0 1.6 0.00 0.03 0.03 94 1021.4
20260903080223 15 116 0.0 1.6 0.00 0.03 0.03 93 1021.5
20260903075722 15 89 0.0 3.2 0.00 0.03 0.03 93 1021.7
20260903075217 15 46 3.2 4.8 0.00 0.03 0.03 92 1021.2
20260903074716 15 54 4.8 4.8 0.00 0.03 0.03 92 1021.6
20260903074212 15 61 1.6 3.2 0.00 0.03 0.03 92 1021.6
20260903073707 15 102 1.6 3.2 0.00 0.03 0.03 92 1021.7
20260903073202 15 92 3.2 3.2 0.00 0.03 0.03 93 1021.9
20260903072658 15 83 3.2 3.2 0.00 0.03 0.03 93 1022.1
20260903072154 15 65 0.0 3.2 0.00 0.03 0.03 93 1022.0
20260903071650 15 229 0.0 4.8 0.00 0.03 0.03 93 1022.1
20260903071145 15 135 1.6 3.2 0.00 0.03 0.03 94 1022.1
20260903070645 15 133 1.6 3.2 0.00 0.03 0.03 93 1021.7
20260903070141 15 60 3.2 6.4 0.00 0.03 0.03 93 1021.6
20260903065641 15 43 4.8 4.8 0.00 0.03 0.03 93 1021.7
20260903065136 15 44 0.0 1.6 0.00 0.03 0.03 92 1022.0
20260903064635 15 256 0.0 3.2 0.00 0.03 0.03 92 1022.0
20260903064130 15 177 1.6 1.6 0.00 0.03 0.03 92 1022.1
20260903063626 15 110 0.0 3.2 0.00 0.03 0.03 92 1021.9
20260903063120 15 35 3.2 3.2 0.05 0.03 0.03 92 1021.8
20260903062617 15 41 3.2 3.2 0.05 0.03 0.03 91 1022.0
20260903062112 15 23 1.6 4.8 0.05 0.03 0.03 90 1022.3
20260903061607 15 58 3.2 3.2 0.05 0.03 0.03 89 1022.6
20260903061106 15 55 0.0 3.2 0.00 0.00 0.00 88 1022.9
20260903060607 16 40 3.2 3.2 0.05 0.00 0.00 87 1023.1
20260903055559 16 42 3.2 4.8 0.00 0.00 0.00 84 1023.3
20260903055058 16 89 3.2 3.2 0.00 0.00 0.00 83 1023.3
20260903054553 16 96 3.2 3.2 0.00 0.00 0.00 82 1023.7
20260903054049 16 98 3.2 3.2 0.00 0.00 0.00 83 1023.6
20260903053544 16 89 1.6 3.2 0.00 0.00 0.00 83 1023.7
20260903053041 16 71 1.6 3.2 0.00 0.00 0.00 82 1023.6
20260903052536 16 76 1.6 3.2 0.00 0.00 0.00 83 1023.5
20260903052032 16 74 0.0 3.2 0.00 0.00 0.00 82 1023.7
20260903051531 16 73 0.0 3.2 0.00 0.00 0.00 82 1023.9
20260903051027 16 65 1.6 3.2 0.00 0.00 0.00 81 1023.9
20260903050525 16 83 1.6 3.2 0.00 0.00 0.00 80 1023.9
20260903050021 16 94 1.6 3.2 0.00 0.00 0.00 81 1024.0
20260903045521 16 86 3.2 3.2 0.00 0.00 0.00 82 1023.7
20260903045017 16 96 3.2 3.2 0.00 0.00 0.00 81 1023.6
20260903044513 16 77 1.6 3.2 0.00 0.00 0.00 82 1023.8
20260903044009 16 49 1.6 3.2 0.00 0.00 0.00 82 1023.5
20260903043504 16 63 1.6 3.2 0.00 0.00 0.00 82 1023.7
20260903043003 16 83 1.6 3.2 0.00 0.00 0.00 82 1024.0
20260903042458 16 85 3.2 3.2 0.00 0.00 0.00 83 1024.0
20260903041954 16 96 3.2 4.8 0.00 0.00 0.00 84 1024.1
20260903041450 16 184 0.0 0.0 0.00 0.00 0.00 85 1024.5
20260903040946 16 99 0.0 0.0 0.00 0.00 0.00 84 1024.2
20260903040444 16 102 0.0 3.2 0.00 0.00 0.00 83 1024.0
20260903035941 16 89 0.0 3.2 0.00 0.00 0.00 83 1024.0
20260903035436 16 67 3.2 3.2 0.00 0.00 0.00 83 1023.9
20260903034931 16 89 0.0 3.2 0.00 0.00 0.00 84 1024.2
20260903034426 16 76 0.0 3.2 0.00 0.00 0.00 84 1024.1
20260903033921 16 76 0.0 1.6 0.00 0.00 0.00 84 1024.2
20260903033416 16 25 0.0 1.6 0.00 0.00 0.00 85 1023.9
20260903032912 16 128 0.0 3.2 0.00 0.00 0.00 85 1023.9
20260903032408 16 102 0.0 3.2 0.00 0.00 0.00 83 1024.0
20260903031908 16 84 3.2 3.2 0.00 0.00 0.00 83 1024.0
20260903031407 17 56 3.2 3.2 0.00 0.00 0.00 84 1024.4
20260903030903 17 108 1.6 3.2 0.00 0.00 0.00 83 1024.2
20260903030359 17 115 0.0 3.2 0.00 0.00 0.00 84 1024.2
20260903025854 17 109 1.6 3.2 0.00 0.00 0.00 82 1024.3
20260903025349 17 74 3.2 4.8 0.00 0.00 0.00 82 1024.2
20260903024844 17 85 3.2 4.8 0.00 0.00 0.00 82 1024.6
20260903024343 17 87 3.2 3.2 0.00 0.00 0.00 82 1024.7
20260903023839 17 97 3.2 3.2 0.00 0.00 0.00 82 1024.8
20260903023335 17 104 3.2 3.2 0.00 0.00 0.00 82 1024.8
20260903022830 17 110 3.2 3.2 0.00 0.00 0.00 83 1024.9
20260903022329 17 92 3.2 3.2 0.00 0.00 0.00 84 1025.1
20260903021828 17 83 1.6 3.2 0.00 0.00 0.00 85 1025.3
20260903021324 16 79 1.6 3.2 0.00 0.00 0.00 85 1025.3
20260903020823 17 89 0.0 1.6 0.00 0.00 0.00 89 1025.6
20260903020318 17 200 0.0 3.2 0.00 0.00 0.00 87 1025.4
20260903015814 17 76 1.6 3.2 0.00 0.00 0.00 88 1025.3
20260903015309 17 76 0.0 3.2 0.00 0.00 0.00 88 1025.4
20260903014804 16 82 1.6 3.2 0.00 0.00 0.00 87 1025.0
20260903014304 16 44 3.2 3.2 0.00 0.00 0.00 90 1025.4
20260903013759 16 79 0.0 0.0 0.00 0.00 0.00 89 1025.2
20260903013258 16 55 0.0 1.6 0.00 0.00 0.00 89 1025.3
20260903012757 16 52 1.6 3.2 0.00 0.00 0.00 88 1025.1
20260903012251 16 76 1.6 3.2 0.00 0.00 0.00 88 1025.3
20260903011751 16 110 0.0 1.6 0.00 0.00 0.00 89 1025.5
20260903011250 16 50 0.0 0.0 0.00 0.00 0.00 88 1025.6
20260903010746 16 60 0.0 1.6 0.00 0.00 0.00 88 1025.4
20260903010241 16 199 0.0 1.6 0.00 0.00 0.00 87 1025.2
20260903005740 16 81 0.0 3.2 0.00 0.00 0.00 87 1024.7
20260903005235 16 97 3.2 3.2 0.00 0.00 0.00 87 1024.5
20260903004731 17 52 1.6 3.2 0.00 0.00 0.00 87 1024.6
20260903004226 17 103 1.6 3.2 0.00 0.00 0.00 86 1024.7
20260903003721 17 80 3.2 3.2 0.00 0.00 0.00 85 1024.8
20260903003217 17 87 1.6 3.2 0.00 0.00 0.00 85 1024.7
20260903002711 17 47 1.6 4.8 0.00 0.00 0.00 85 1024.9
20260903002206 17 33 3.2 3.2 0.00 0.00 0.00 85 1024.9
20260903001701 17 116 0.0 3.2 0.00 0.00 0.00 84 1025.1
20260903001200 17 62 1.6 3.2 0.00 0.00 0.00 85 1025.1
20260903000656 17 58 1.6 3.2 0.00 0.00 0.00 85 1025.1
20260903000155 17 29 3.2 4.8 0.00 0.00 0.00 85 1025.1
20260902235654 17 40 0.0 3.2 0.00 0.00 0.00 84 1025.2
20260902235150 17 64 3.2 3.2 0.00 0.00 0.00 85 1025.2
20260902234649 17 73 1.6 3.2 0.00 0.00 0.00 86 1025.2
20260902234148 17 58 1.6 3.2 0.00 0.00 0.00 84 1025.2
20260902233643 17 79 3.2 4.8 0.00 0.00 0.00 85 1025.3
20260902233143 17 82 1.6 3.2 0.00 0.00 0.00 85 1025.6
20260902232642 17 55 3.2 3.2 0.00 0.00 0.00 85 1025.5
20260902232141 17 71 1.6 3.2 0.00 0.00 0.00 85 1025.7
20260902231641 17 75 3.2 4.8 0.00 0.00 0.00 87 1025.6
20260902231136 17 44 3.2 3.2 0.00 0.00 0.00 87 1025.9
20260902230632 17 44 0.0 3.2 0.00 0.00 0.00 87 1026.2
20260902230130 17 40 3.2 3.2 0.00 0.00 0.00 87 1026.0
20260902225625 18 103 1.6 3.2 0.00 0.00 0.00 86 1026.3
20260902225125 18 42 0.0 3.2 0.00 0.00 0.00 85 1026.0
20260902224623 18 89 0.0 1.6 0.00 0.00 0.00 86 1026.1
20260902224120 18 32 0.0 1.6 0.00 0.00 0.00 85 1026.3
20260902223616 18 51 3.2 3.2 0.00 0.00 0.00 83 1026.3
20260902223115 18 66 0.0 1.6 0.00 0.00 0.00 84 1026.2
20260902222614 18 41 0.0 1.6 0.00 0.00 0.00 84 1026.3
20260902222112 18 5 3.2 3.2 0.00 0.00 0.00 82 1026.5
20260902221607 18 50 0.0 3.2 0.00 0.00 0.00 82 1026.1
20260902221102 18 89 0.0 3.2 0.00 0.00 0.00 82 1026.3
20260902220557 18 104 1.6 1.6 0.00 0.00 0.00 82 1026.1
20260902220052 19 47 1.6 3.2 0.00 0.00 0.00 85 1026.1
20260902215548 19 76 3.2 3.2 0.00 0.00 0.00 84 1026.2
20260902215044 19 37 0.0 1.6 0.00 0.00 0.00 83 1026.2
20260902214544 19 6 0.0 1.6 0.00 0.00 0.00 82 1026.1
20260902214043 19 32 0.0 1.6 0.00 0.00 0.00 85 1026.1
20260902213538 19 9 0.0 3.2 0.00 0.00 0.00 84 1026.0
20260902213038 20 19 0.0 0.0 0.00 0.00 0.00 83 1026.2
20260902212534 20 39 0.0 0.0 0.00 0.00 0.00 82 1026.1
20260902212029 20 32 0.0 1.6 0.00 0.00 0.00 81 1026.1
20260902211526 20 332 0.0 0.0 0.00 0.00 0.00 81 1026.1
20260902211021 20 109 0.0 1.6 0.00 0.00 0.00 79 1026.0
20260902210520 20 83 1.6 3.2 0.00 0.00 0.00 77 1026.1
20260902210020 20 111 0.0 3.2 0.00 0.00 0.00 77 1026.0
20260902205514 21 113 0.0 3.2 0.00 0.00 0.00 76 1025.8
20260902205010 21 98 0.0 3.2 0.00 0.00 0.00 76 1025.7
20260902204509 21 21 3.2 3.2 0.00 0.00 0.00 77 1025.7
20260902204004 21 129 0.0 3.2 0.00 0.00 0.00 77 1025.8
20260902203500 21 22 0.0 3.2 0.00 0.00 0.00 75 1025.9
20260902202958 21 77 0.0 3.2 0.00 0.00 0.00 74 1026.0
20260902202454 21 86 3.2 3.2 0.00 0.00 0.00 75 1025.8
20260902201951 21 2 1.6 3.2 0.00 0.00 0.00 79 1026.0
20260902201446 20 87 1.6 1.6 0.00 0.00 0.00 78 1026.5
20260902200946 20 142 0.0 1.6 0.00 0.00 0.00 78 1026.7
20260902200441 20 55 0.0 1.6 0.00 0.00 0.00 79 1026.6
20260902195936 20 89 0.0 3.2 0.00 0.00 0.00 76 1026.5
20260902195432 21 53 0.0 3.2 0.00 0.00 0.00 76 1026.7
20260902194931 21 151 0.0 3.2 0.00 0.00 0.00 76 1026.6
20260902194426 20 84 0.0 1.6 0.00 0.00 0.00 77 1026.5
20260902193920 20 64 0.0 3.2 0.00 0.00 0.00 77 1026.6
20260902193417 20 86 1.6 3.2 0.00 0.00 0.00 77 1026.5
20260902192915 20 15 0.0 4.8 0.00 0.00 0.00 79 1026.7
20260902192415 20 47 3.2 3.2 0.00 0.00 0.00 83 1026.7
20260902191913 20 72 1.6 3.2 0.00 0.00 0.00 81 1026.8
20260902191409 20 32 0.0 1.6 0.00 0.00 0.00 80 1027.1
20260902190904 20 9 3.2 4.8 0.00 0.00 0.00 78 1027.1
20260902190359 20 11 0.0 4.8 0.00 0.00 0.00 79 1027.0
20260902185855 20 44 1.6 3.2 0.00 0.00 0.00 78 1027.1
20260902185350 20 54 0.0 1.6 0.00 0.00 0.00 77 1026.8
20260902184845 20 57 1.6 3.2 0.00 0.00 0.00 79 1026.8
20260902184341 20 44 1.6 3.2 0.00 0.00 0.00 77 1027.2
20260902183836 20 104 0.0 4.8 0.00 0.00 0.00 78 1027.0
20260902183332 20 93 1.6 3.2 0.00 0.00 0.00 75 1026.8
20260902182828 20 10 0.0 3.2 0.00 0.00 0.00 75 1027.0
20260902182324 21 105 0.0 1.6 0.00 0.00 0.00 77 1026.9
20260902181820 21 160 3.2 4.8 0.00 0.00 0.00 76 1026.9
20260902181315 21 108 1.6 4.8 0.00 0.00 0.00 73 1026.6
20260902180810 21 2 1.6 3.2 0.00 0.00 0.00 76 1026.9
20260902180306 21 297 3.2 3.2 0.00 0.00 0.00 76 1027.0
20260902175801 20 317 1.6 1.6 0.00 0.00 0.00 78 1027.0
20260902175256 20 99 3.2 4.8 0.00 0.00 0.00 75 1027.2
20260902174751 20 136 1.6 3.2 0.00 0.00 0.00 79 1027.3
20260902174248 20 108 3.2 3.2 0.00 0.00 0.00 77 1027.2
20260902173743 20 141 0.0 1.6 0.00 0.00 0.00 77 1027.3
20260902173243 20 117 4.8 4.8 0.00 0.00 0.00 75 1027.2
20260902172738 20 78 1.6 3.2 0.00 0.00 0.00 78 1027.2
20260902172238 20 116 1.6 3.2 0.00 0.00 0.00 79 1027.2
20260902171732 20 57 1.6 4.8 0.00 0.00 0.00 79 1027.2
20260902171228 20 15 3.2 3.2 0.00 0.00 0.00 77 1027.3
20260902170724 20 69 3.2 4.8 0.00 0.00 0.00 76 1027.2
20260902170219 20 54 0.0 1.6 0.00 0.00 0.00 78 1027.0
20260902165714 20 3 3.2 3.2 0.00 0.00 0.00 79 1027.4
20260902165208 19 109 3.2 4.8 0.00 0.00 0.00 79 1027.0
20260902164703 20 106 3.2 3.2 0.00 0.00 0.00 78 1027.2
20260902164203 19 108 4.8 6.4 0.00 0.00 0.00 80 1027.2
20260902163657 19 123 6.4 6.4 0.00 0.00 0.00 83 1027.3
20260902163157 19 315 0.0 3.2 0.00 0.00 0.00 83 1027.4
20260902162656 19 136 3.2 3.2 0.00 0.00 0.00 82 1027.2
20260902162150 18 130 3.2 4.8 0.00 0.00 0.00 83 1027.5
20260902161646 19 115 3.2 4.8 0.00 0.00 0.00 81 1027.6
20260902161141 19 101 3.2 3.2 0.00 0.00 0.00 83 1027.7
20260902160638 19 290 3.2 4.8 0.00 0.00 0.00 83 1027.6
20260902160132 18 356 3.2 4.8 0.00 0.00 0.00 83 1027.5
20260902155631 18 349 3.2 4.8 0.00 0.00 0.00 84 1027.6
20260902155130 18 341 0.0 6.4 0.00 0.00 0.00 83 1027.8
20260902154625 18 7 3.2 3.2 0.00 0.00 0.00 82 1027.9
20260902154120 18 359 3.2 3.2 0.00 0.00 0.00 81 1027.9
20260902153619 18 34 3.2 3.2 0.00 0.00 0.00 83 1028.1
20260902153114 18 89 1.6 3.2 0.00 0.00 0.00 83 1028.2
20260902152610 18 84 3.2 3.2 0.00 0.00 0.00 83 1028.2
20260902152105 18 157 3.2 3.2 0.00 0.00 0.00 84 1028.3
20260902151601 18 27 3.2 3.2 0.00 0.00 0.00 83 1028.2
20260902151101 18 89 0.0 3.2 0.00 0.00 0.00 85 1028.2
20260902150556 18 63 3.2 3.2 0.00 0.00 0.00 85 1028.1
20260902150052 18 108 0.0 4.8 0.00 0.00 0.00 84 1028.1
20260902145551 18 92 1.6 3.2 0.00 0.00 0.00 86 1028.1
20260902145051 18 74 3.2 3.2 0.00 0.00 0.00 86 1027.9
20260902144549 18 97 0.0 3.2 0.00 0.00 0.00 86 1028.1
20260902144049 18 89 1.6 4.8 0.00 0.00 0.00 86 1027.9
20260902143544 17 102 3.2 3.2 0.00 0.00 0.00 88 1028.1
20260902143039 17 45 0.0 3.2 0.00 0.00 0.00 88 1028.1
20260902142535 17 66 0.0 3.2 0.00 0.00 0.00 87 1028.0
20260902142031 17 108 1.6 3.2 0.00 0.00 0.00 87 1028.1
20260902141530 17 42 3.2 3.2 0.00 0.00 0.00 89 1028.5
20260902141026 17 110 3.2 4.8 0.00 0.00 0.00 88 1028.0
20260902140526 17 81 1.6 6.4 0.00 0.00 0.00 89 1028.0
20260902140021 17 324 3.2 3.2 0.00 0.00 0.00 89 1027.9
20260902135520 17 287 1.6 3.2 0.00 0.00 0.00 89 1027.9
20260902135015 17 79 3.2 6.4 0.00 0.00 0.00 90 1027.6
20260902134512 17 80 3.2 3.2 0.00 0.00 0.00 91 1027.7
20260902134011 17 76 0.0 4.8 0.00 0.00 0.00 90 1027.4
20260902133506 17 88 3.2 3.2 0.00 0.00 0.00 91 1027.4
20260902133006 17 327 1.6 3.2 0.00 0.00 0.00 91 1027.5
20260902132501 17 73 1.6 3.2 0.00 0.00 0.00 92 1027.5
20260902131956 16 95 3.2 3.2 0.00 0.00 0.00 92 1027.3
20260902131453 17 327 1.6 3.2 0.00 0.00 0.00 93 1027.2
20260902130952 16 107 1.6 3.2 0.00 0.00 0.00 92 1027.1
20260902130448 16 91 0.0 3.2 0.00 0.00 0.00 93 1027.4
20260902125943 16 89 0.0 3.2 0.00 0.00 0.00 92 1027.2
20260902125439 16 57 3.2 9.7 0.00 0.00 0.00 93 1027.2
20260902124935 16 73 0.0 3.2 0.00 0.00 0.00 94 1027.3
20260902124431 16 38 1.6 3.2 0.00 0.00 0.00 94 1027.5
20260902123926 16 109 3.2 4.8 0.00 0.00 0.00 94 1027.5
20260902123422 16 105 3.2 4.8 0.00 0.00 0.00 95 1027.3
20260902122920 16 104 3.2 4.8 0.00 0.00 0.00 95 1027.2
20260902122416 15 28 1.6 3.2 0.00 0.00 0.00 95 1027.3
20260902121912 15 44 1.6 3.2 0.00 0.00 0.00 96 1027.3
20260902121406 15 195 0.0 3.2 0.00 0.00 0.00 96 1027.4
20260902120901 15 6 0.0 3.2 0.00 0.00 0.00 97 1027.6
20260902120358 15 129 3.2 3.2 0.00 0.00 0.00 98 1027.6
20260902115857 15 66 0.0 3.2 0.00 0.00 0.00 98 1027.3
20260902115354 15 43 1.6 3.2 0.00 0.00 0.00 98 1027.3
20260902114850 15 159 0.0 3.2 0.00 0.00 0.00 99 1027.3
20260902114345 15 44 1.6 3.2 0.00 0.00 0.00 99 1027.5
20260902113840 15 1 0.0 3.2 0.00 0.00 0.00 99 1027.5
20260902113336 15 7 3.2 3.2 0.00 0.00 0.00 99 1027.6
20260902112835 15 358 1.6 3.2 0.00 0.00 0.00 99 1027.7
20260902112332 15 346 1.6 3.2 0.00 0.00 0.00 99 1027.7
20260902111827 15 217 0.0 0.0 0.00 0.00 0.00 99 1027.8
20260902111323 15 217 0.0 1.6 0.00 0.00 0.00 99 1027.8
20260902110819 15 167 0.0 3.2 0.00 0.00 0.00 99 1027.7
20260902110314 15 180 0.0 3.2 0.00 0.00 0.00 99 1027.6
20260902105814 15 193 0.0 3.2 0.00 0.00 0.00 99 1027.4
20260902105309 15 128 3.2 3.2 0.00 0.00 0.00 99 1027.2
20260902104804 15 10 1.6 3.2 0.00 0.00 0.00 99 1027.4
20260902104301 15 18 3.2 3.2 0.00 0.00 0.00 99 1027.4
20260902103800 15 104 0.0 3.2 0.00 0.00 0.00 99 1027.4
20260902103301 15 150 0.0 1.6 0.00 0.00 0.00 99 1027.2
20260902102756 15 66 0.0 1.6 0.00 0.00 0.00 99 1027.4
20260902102253 14 113 0.0 1.6 0.00 0.00 0.00 99 1027.1
20260902101748 14 126 0.0 3.2 0.00 0.00 0.00 99 1027.2
20260902101243 14 182 0.0 1.6 0.00 0.00 0.00 99 1027.0
20260902100743 14 166 0.0 1.6 0.00 0.00 0.00 99 1026.9
20260902100237 15 119 0.0 0.0 0.00 0.00 0.00 99 1027.1
20260902095738 15 148 0.0 1.6 0.00 0.00 0.00 99 1027.3
20260902095232 14 23 0.0 0.0 0.00 0.00 0.00 99 1027.3
20260902094726 15 119 0.0 0.0 0.00 0.00 0.00 99 1027.1
20260902094223 15 45 0.0 1.6 0.00 0.00 0.00 99 1027.0
20260902093722 14 128 1.6 1.6 0.00 0.00 0.00 99 1027.1
20260902093218 14 37 0.0 0.0 0.00 0.00 0.00 99 1026.8
20260902092718 15 142 0.0 0.0 0.00 0.00 0.00 99 1026.9
20260902092213 14 39 1.6 3.2 0.00 0.00 0.00 99 1026.6
20260902091712 15 56 0.0 0.0 0.00 0.00 0.00 99 1026.8
20260902091209 15 142 0.0 0.0 0.00 0.00 0.00 99 1026.6
20260902090705 14 167 0.0 1.6 0.00 0.00 0.00 99 1026.5
20260902090203 14 147 0.0 1.6 0.00 0.00 0.00 99 1026.7
20260902085658 14 128 3.2 3.2 0.00 0.00 0.00 99 1026.3
20260902085153 14 66 0.0 0.0 0.00 0.00 0.00 99 1026.5
20260902084649 14 60 0.0 3.2 0.00 0.00 0.00 99 1026.2
20260902084145 15 96 0.0 0.0 0.00 0.00 0.00 99 1026.6
20260902083640 14 135 0.0 1.6 0.00 0.00 0.00 99 1026.6
20260902083139 14 83 0.0 1.6 0.00 0.00 0.00 99 1026.6
20260902082635 14 119 0.0 1.6 0.00 0.00 0.00 99 1026.2
20260902082131 15 37 0.0 1.6 0.00 0.00 0.00 99 1026.5
20260902081627 15 30 1.6 3.2 0.00 0.00 0.00 99 1026.3